This is the latest recevied weather packets stored in our database for station/object K7LDN-13. If no packets are shown the sender has not sent any weather packets the latest 10 day(s).
| Time | Temp. | Humidity | Pressure | Rain* | Wind** | Luminosity | Snow |
|---|---|---|---|---|---|---|---|
| 1777205891 | 6.67° C | 86% | 1005.4 hPa | 1.78 mm | - | 0 W/m² | - |
| 1777205587 | 6.67° C | 85% | 1005.4 hPa | 1.78 mm | - | 0 W/m² | - |
| 1777205284 | 7.22° C | 84% | 1005.7 hPa | 0.51 mm | - | 0 W/m² | - |
| 1777204979 | 7.22° C | 83% | 1005.5 hPa | 0.51 mm | - | 0 W/m² | - |
| 1777204675 | 7.22° C | 83% | 1005.5 hPa | 1.27 mm | - | 0 W/m² | - |
| 1777204370 | 7.22° C | 83% | 1005.4 hPa | 0.51 mm | - | 0 W/m² | - |
| 1777204068 | 7.22° C | 84% | 1005.4 hPa | 0.51 mm | - | 0 W/m² | - |
| 1777203762 | 7.78° C | 83% | 1005.3 hPa | 1.27 mm | - | 0 W/m² | - |
| 1777203457 | 7.78° C | 84% | 1005.3 hPa | 0.51 mm | - | 0 W/m² | - |
| 1777203153 | 7.78° C | 84% | 1005.4 hPa | 0 mm | - | 0 W/m² | - |
| 1777202851 | 7.78° C | 85% | 1005.4 hPa | 0 mm | - | 0 W/m² | - |
| 1777202549 | 7.78° C | 84% | 1005.7 hPa | 0.51 mm | - | 0 W/m² | - |
| 1777202244 | 7.78° C | 85% | 1005.7 hPa | 0.51 mm | - | 0 W/m² | - |
| 1777201941 | 7.78° C | 86% | 1005.6 hPa | 0 mm | - | 0 W/m² | - |
| 1777201636 | 7.78° C | 87% | 1005.7 hPa | 0.51 mm | - | 0 W/m² | - |
| 1777201332 | 7.78° C | 87% | 1005.6 hPa | 1.27 mm | - | 0 W/m² | - |
| 1777201028 | 8.33° C | 87% | 1005.7 hPa | 0.51 mm | - | 0 W/m² | - |
| 1777200725 | 8.33° C | 87% | 1006 hPa | 0 mm | - | 0 W/m² | - |
| 1777200424 | 8.33° C | 87% | 1005.6 hPa | 0.51 mm | - | 0 W/m² | - |
| 1777200121 | 8.33° C | 87% | 1006 hPa | 0.51 mm | - | 0 W/m² | - |
| 1777199818 | 8.33° C | 87% | 1005.7 hPa | 0 mm | - | 0 W/m² | - |
| 1777199518 | 8.33° C | 86% | 1005.9 hPa | 0.51 mm | - | 0 W/m² | - |
| 1777199212 | 8.33° C | 86% | 1005.9 hPa | 0.51 mm | - | 0 W/m² | - |
| 1777198911 | 8.33° C | 86% | 1005.6 hPa | 0 mm | - | 0 W/m² | - |
| 1777198608 | 8.33° C | 85% | 1005.9 hPa | 0 mm | - | 0 W/m² | - |
* Rain latest hour (hover to see other rain measurements)
** Current wind speed in m/s (hover to see current wind gust speed)